Kansas City, MO

6:33 PM CDT on September 28, 2016 (GMT -0500)
Kansas City International

Weather History for KMCI - December, 2011

Change the Weather History Date:

Friday, December 9, 2011

  Actual Average Record
Temperature  
Mean Temperature 28 °F 33 °F  
Max Temperature 35 °F 42 °F 68 °F (1897)
Min Temperature 20 °F 24 °F -5 °F (2005)
Degree Days  
Heating Degree Days 37 32  
Month to date heating degree days 309 276  
Since 1 July heating degree days 1233 1278  
Cooling Degree Days 0 0  
Month to date cooling degree days 0 0  
Year to date cooling degree days 1598 1360  
Moisture  
Dew Point 20 °F    
Average Humidity 68    
Maximum Humidity 88    
Minimum Humidity 47    
Precipitation  
Precipitation T in 0.06 in 1.51 in (1911)
Month to date precipitation 1.12 0.53  
Year to date precipitation 35.01 37.86  
Snow  
Snow T in 0.10 in 7.50 in (1944)
Month to date snowfall T 1.2  
Since 1 July snowfall T 2.6  
Snow Depth 0.00 in    
Sea Level Pressure  
Sea Level Pressure 30.39 in    
Wind  
Wind Speed 7 mph (NNE)    
Max Wind Speed 18 mph    
Max Gust Speed 22 mph    
Visibility 10 miles    
Events Snow    
T = Trace of Precipitation, MM = Missing Value Source: NWS Daily Summary

Daily Weather History Graph

Daily Weather History Graph

Search for Another Location

Airport or City:

Trip Planner

Search our weather history database for the weather conditions in past years. The results will help you decide how hot, cold, wet, or windy it might be!

Date:

Astronomy

Dec. 09, 2011 Rise Set
Actual Time 7:26 AM CST 4:55 PM CST
Civil Twilight 6:56 AM CST 5:25 PM CST
Nautical Twilight 6:23 AM CST 5:59 PM CST
Astronomical Twilight 5:50 AM CST 6:31 PM CST
Moon 4:19 PM CST (12/9) 6:34 AM CST (12/9)
Length of Visible Light 10h 28m
Length of Day
9h 28m
Waxing Gibbous, 99% of the Moon is Illuminated
Dec 9
Waxing Gibbous
Dec 10
Full
Dec 17
Last Quarter
Dec 24
New
Jan 1
First Quarter

Hourly Weather History & Observations

Time (CST) Temp. Windchill Dew Point Humidity Pressure Visibility Wind Dir Wind Speed Gust Speed Precip Events Conditions
12:00 AM 32.0 °F 24.8 °F 28.4 °F 87% 30.25 in 10.0 mi North 8.1 mph - N/A   Overcast
12:09 AM 32.0 °F 24.2 °F 28.4 °F 87% 30.25 in 9.0 mi North 9.2 mph - N/A   Overcast
12:53 AM 30.9 °F 21.7 °F 28.9 °F 92% 30.28 in 6.0 mi North 11.5 mph - 0.00 in Snow Light Snow
1:53 AM 28.0 °F 16.5 °F 25.0 °F 88% 30.28 in 9.0 mi North 15.0 mph - 0.00 in Snow Light Snow
2:26 AM 28.4 °F 17.5 °F 24.8 °F 86% 30.26 in 9.0 mi North 13.8 mph - 0.00 in Snow Light Snow
2:53 AM 28.0 °F 16.5 °F 24.1 °F 85% 30.30 in 9.0 mi North 15.0 mph - 0.00 in Snow Light Snow
3:22 AM 26.6 °F 16.2 °F 24.8 °F 93% 30.28 in 10.0 mi North 11.5 mph - 0.00 in   Overcast
3:43 AM 26.6 °F 15.2 °F 24.8 °F 93% 30.29 in 10.0 mi NNE 13.8 mph - 0.00 in   Overcast
3:53 AM 27.0 °F 17.3 °F 24.1 °F 89% 30.31 in 10.0 mi NNE 10.4 mph - 0.00 in   Overcast
4:33 AM 26.6 °F 16.2 °F 23.0 °F 86% 30.29 in 10.0 mi NNE 11.5 mph - N/A   Overcast
4:53 AM 26.1 °F 17.6 °F 21.9 °F 84% 30.32 in 10.0 mi NNE 8.1 mph - N/A   Overcast
5:02 AM 26.6 °F 16.2 °F 21.2 °F 80% 30.29 in 10.0 mi NNE 11.5 mph - N/A   Overcast
5:30 AM 26.6 °F 16.8 °F 21.2 °F 80% 30.30 in 10.0 mi NNE 10.4 mph - N/A   Overcast
5:53 AM 26.1 °F 15.0 °F 19.9 °F 78% 30.34 in 10.0 mi NNE 12.7 mph - N/A   Overcast
6:53 AM 23.0 °F 13.9 °F 19.9 °F 88% 30.36 in 10.0 mi North 8.1 mph - N/A   Overcast
7:20 AM 24.8 °F 16.1 °F 19.4 °F 80% 30.34 in 10.0 mi NNE 8.1 mph - N/A   Overcast
7:29 AM 24.8 °F 16.9 °F 19.4 °F 80% 30.34 in 10.0 mi NNE 6.9 mph - N/A   Mostly Cloudy
7:53 AM 23.0 °F 13.9 °F 19.9 °F 88% 30.39 in 10.0 mi North 8.1 mph - N/A   Mostly Cloudy
8:44 AM 26.6 °F 17.5 °F 21.2 °F 80% 30.38 in 10.0 mi NE 9.2 mph - N/A   Overcast
8:53 AM 27.0 °F 16.1 °F 21.0 °F 78% 30.41 in 10.0 mi NE 12.7 mph - N/A   Overcast
9:46 AM 28.4 °F 20.4 °F 15.8 °F 59% 30.40 in 10.0 mi NE 8.1 mph - N/A   Mostly Cloudy
9:53 AM 27.0 °F 19.5 °F 15.1 °F 61% 30.44 in 10.0 mi NE 6.9 mph - N/A   Mostly Cloudy
10:53 AM 30.0 °F - 15.1 °F 54% 30.45 in 10.0 mi Calm Calm - N/A   Mostly Cloudy
11:53 AM 33.1 °F - 16.0 °F 50% 30.44 in 10.0 mi Calm Calm - N/A   Mostly Cloudy
12:53 PM 33.8 °F 27.7 °F 17.6 °F 52% 30.40 in 10.0 mi NW 6.9 mph - N/A   Mostly Cloudy
1:53 PM 34.0 °F 29.8 °F 17.1 °F 50% 30.43 in 10.0 mi North 4.6 mph - N/A   Partly Cloudy
2:53 PM 34.0 °F 28.0 °F 16.0 °F 48% 30.44 in 10.0 mi NW 6.9 mph - N/A   Partly Cloudy
3:53 PM 32.0 °F 25.6 °F 16.0 °F 52% 30.45 in 10.0 mi North 6.9 mph - N/A   Mostly Cloudy
4:53 PM 30.9 °F 26.2 °F 17.1 °F 57% 30.47 in 10.0 mi North 4.6 mph - N/A   Overcast
5:53 PM 30.0 °F 24.1 °F 16.0 °F 56% 30.50 in 10.0 mi North 5.8 mph - N/A   Overcast
6:53 PM 28.9 °F 23.9 °F 16.0 °F 58% 30.52 in 10.0 mi North 4.6 mph - N/A   Overcast
7:53 PM 28.0 °F 20.0 °F 15.1 °F 58% 30.53 in 10.0 mi North 8.1 mph - N/A   Overcast
8:53 PM 28.0 °F 20.8 °F 15.1 °F 58% 30.53 in 10.0 mi North 6.9 mph - N/A   Overcast
9:53 PM 25.0 °F - 12.0 °F 58% 30.53 in 10.0 mi Calm Calm - N/A   Mostly Cloudy
10:53 PM 23.0 °F 14.7 °F 12.0 °F 63% 30.54 in 10.0 mi NNE 6.9 mph - N/A   Mostly Cloudy
11:53 PM 19.9 °F 12.1 °F 12.9 °F 74% 30.55 in 10.0 mi NNE 5.8 mph - N/A   Clear